Location: Ferchesar
(52.6477°N, 12.4298°E)
Time: 04:21:09
(UTC+02:00)

Vanguard 3 - Pass Details

Date: 01 March 2021
Orbit: 508 x 3262 km, 33.3° (Epoch: 15 April)

Event Time Altitude Azimuth Distance (km) Brightness Sun altitude
Rises 20:45:49 0° 263° (W) 5,952 12.4 -26.9°
Reaches altitude 10° 20:52:24 10° 245° (WSW) 4,295 11.2 -27.8°
Maximum altitude 20:57:46 15° 216° (SW) 3,316 10.3 -28.5°
Enters shadow 21:01:07 12° 191° (S) 3,160 10.0 -29.0°
Drops below altitude 10° 21:02:00 10° 184° (S) 3,200 - -29.1°
Sets 21:05:43 0° 161° (SSE) 3,715 - -29.6°
